Time,TemperatureF,DewpointF,PressureIn,WindDirection,WindDirectionDegrees,WindSpeedMPH,WindSpeedGustMPH,Humidity,HourlyPrecipIn,Conditions,Clouds,dailyrainin,SoftwareType,DateUTC
2013-06-20 00:00:00,57.0,48.1,30.17,NNW,342,0.0,2.0,72,0.00,,,0.10,VWS V14.01,2013-06-20 04:00:00,
2013-06-20 00:01:00,56.9,48.3,30.17,NNW,342,0.0,2.0,73,0.00,,,0.10,VWS V14.01,2013-06-20 04:01:00,
2013-06-20 00:06:00,56.2,50.1,30.17,NNW,342,0.0,0.0,80,0.00,,,0.00,VWS V14.01,2013-06-20 04:06:00,
2013-06-20 00:11:00,55.9,49.8,30.17,NNW,342,0.0,0.0,80,0.00,,,0.00,VWS V14.01,2013-06-20 04:11:00,
2013-06-20 00:16:00,55.7,49.6,30.17,NNW,342,0.0,0.0,80,0.00,,,0.00,VWS V14.01,2013-06-20 04:16:00,
2013-06-20 00:21:00,55.3,49.9,30.17,NNW,342,0.0,0.0,82,0.00,,,0.00,VWS V14.01,2013-06-20 04:21:00,
2013-06-20 00:26:00,54.9,47.8,30.17,NNW,342,0.0,0.0,77,0.00,,,0.00,VWS V14.01,2013-06-20 04:26:00,
2013-06-20 00:31:00,54.8,48.1,30.18,NNW,342,0.0,1.0,78,0.00,,,0.00,VWS V14.01,2013-06-20 04:31:00,
2013-06-20 00:36:00,54.6,48.6,30.18,NNW,342,0.0,0.0,80,0.00,,,0.00,VWS V14.01,2013-06-20 04:36:00,
2013-06-20 00:41:00,54.4,49.0,30.18,NNW,342,0.0,0.0,82,0.00,,,0.00,VWS V14.01,2013-06-20 04:41:00,
2013-06-20 00:46:00,54.1,49.4,30.18,NNW,342,0.0,0.0,84,0.00,,,0.00,VWS V14.01,2013-06-20 04:46:00,
2013-06-20 00:51:00,53.9,49.5,30.18,NNW,342,0.0,0.0,85,0.00,,,0.00,VWS V14.01,2013-06-20 04:51:00,
2013-06-20 00:56:00,53.4,49.6,30.18,NNW,342,0.0,0.0,87,0.00,,,0.00,VWS V14.01,2013-06-20 04:56:00,
2013-06-20 01:01:00,53.3,49.2,30.18,NNW,342,0.0,0.0,86,0.00,,,0.00,VWS V14.01,2013-06-20 05:01:00,
2013-06-20 01:06:00,53.5,49.1,30.18,NNW,342,0.0,0.0,85,0.00,,,0.00,VWS V14.01,2013-06-20 05:06:00,
2013-06-20 01:11:00,53.7,49.3,30.18,NNW,342,0.0,0.0,85,0.00,,,0.00,VWS V14.01,2013-06-20 05:11:00,
2013-06-20 01:16:00,53.6,49.5,30.18,NNW,342,0.0,0.0,86,0.00,,,0.00,VWS V14.01,2013-06-20 05:16:00,
2013-06-20 01:21:00,53.3,48.9,30.18,NNW,342,0.0,0.0,85,0.00,,,0.00,VWS V14.01,2013-06-20 05:21:00,
2013-06-20 01:26:00,53.2,48.8,30.18,NNW,342,0.0,0.0,85,0.00,,,0.00,VWS V14.01,2013-06-20 05:26:00,
2013-06-20 01:31:00,53.1,48.4,30.18,NNW,342,0.0,0.0,84,0.00,,,0.00,VWS V14.01,2013-06-20 05:31:00,
2013-06-20 01:36:00,53.3,48.0,30.18,NNW,342,0.0,0.0,82,0.00,,,0.00,VWS V14.01,2013-06-20 05:36:00,
2013-06-20 01:41:00,53.0,48.0,30.18,NNW,342,0.0,0.0,83,0.00,,,0.00,VWS V14.01,2013-06-20 05:41:00,
2013-06-20 01:46:00,52.7,48.0,30.18,NNW,342,0.0,0.0,84,0.00,,,0.00,VWS V14.01,2013-06-20 05:46:00,
2013-06-20 01:51:00,53.0,46.7,30.18,NNW,342,0.0,0.0,79,0.00,,,0.00,VWS V14.01,2013-06-20 05:51:00,
2013-06-20 01:56:00,52.8,47.5,30.18,NNW,342,0.0,0.0,82,0.00,,,0.00,VWS V14.01,2013-06-20 05:56:00,
2013-06-20 02:01:00,53.2,47.9,30.18,NNW,342,0.0,0.0,82,0.00,,,0.00,VWS V14.01,2013-06-20 06:01:00,
2013-06-20 02:06:00,53.3,48.3,30.18,NNW,342,0.0,0.0,83,0.00,,,0.00,VWS V14.01,2013-06-20 06:06:00,
2013-06-20 02:11:00,52.8,47.8,30.19,NNW,342,0.0,0.0,83,0.00,,,0.00,VWS V14.01,2013-06-20 06:11:00,
2013-06-20 02:16:00,52.5,48.1,30.19,NNW,342,0.0,0.0,85,0.00,,,0.00,VWS V14.01,2013-06-20 06:16:00,
2013-06-20 02:21:00,51.8,48.4,30.19,NNW,342,0.0,2.0,88,0.00,,,0.00,VWS V14.01,2013-06-20 06:21:00,
2013-06-20 02:26:00,51.3,48.5,30.19,NNW,342,0.0,2.0,90,0.00,,,0.00,VWS V14.01,2013-06-20 06:26:00,
2013-06-20 02:31:00,51.3,48.8,30.19,NNW,342,0.0,2.0,91,0.00,,,0.00,VWS V14.01,2013-06-20 06:31:00,
2013-06-20 02:36:00,51.2,48.7,30.19,NNW,342,0.0,0.0,91,0.00,,,0.00,VWS V14.01,2013-06-20 06:36:00,
2013-06-20 02:41:00,51.1,48.3,30.19,NNW,342,0.0,0.0,90,0.00,,,0.00,VWS V14.01,2013-06-20 06:41:00,
2013-06-20 02:46:00,51.0,48.5,30.19,NNW,342,1.0,2.0,91,0.00,,,0.00,VWS V14.01,2013-06-20 06:46:00,
2013-06-20 02:51:00,50.8,48.3,30.19,NNW,342,0.0,2.0,91,0.00,,,0.00,VWS V14.01,2013-06-20 06:51:00,
2013-06-20 02:56:00,50.7,48.5,30.19,NNW,342,1.0,2.0,92,0.00,,,0.00,VWS V14.01,2013-06-20 06:56:00,
2013-06-20 03:01:00,50.6,48.4,30.20,NNW,342,1.0,2.0,92,0.00,,,0.00,VWS V14.01,2013-06-20 07:01:00,
2013-06-20 03:06:00,50.6,48.7,30.20,NNW,342,0.0,1.0,93,0.00,,,0.00,VWS V14.01,2013-06-20 07:06:00,
2013-06-20 03:11:00,50.5,48.6,30.20,NNW,342,0.0,1.0,93,0.00,,,0.00,VWS V14.01,2013-06-20 07:11:00,
2013-06-20 03:16:00,50.5,48.6,30.20,NNW,342,0.0,1.0,93,0.00,,,0.00,VWS V14.01,2013-06-20 07:16:00,
2013-06-20 03:21:00,50.3,48.4,30.20,NNW,342,1.0,2.0,93,0.00,,,0.00,VWS V14.01,2013-06-20 07:21:00,
2013-06-20 03:26:00,50.1,48.2,30.20,NNW,342,1.0,2.0,93,0.00,,,0.00,VWS V14.01,2013-06-20 07:26:00,
2013-06-20 03:31:00,50.0,48.3,30.20,NNW,342,1.0,2.0,94,0.00,,,0.00,VWS V14.01,2013-06-20 07:31:00,
2013-06-20 03:36:00,50.0,48.3,30.20,NNW,342,1.0,1.0,94,0.00,,,0.00,VWS V14.01,2013-06-20 07:36:00,
2013-06-20 03:41:00,49.8,48.2,30.20,NNW,342,2.0,2.0,94,0.00,,,0.00,VWS V14.01,2013-06-20 07:41:00,
2013-06-20 03:46:00,49.6,48.0,30.20,NNW,342,0.0,2.0,94,0.00,,,0.00,VWS V14.01,2013-06-20 07:46:00,
2013-06-20 03:51:00,49.6,48.0,30.20,NNW,342,0.0,2.0,94,0.00,,,0.00,VWS V14.01,2013-06-20 07:51:00,
2013-06-20 03:56:00,49.7,48.0,30.21,NNW,342,2.0,2.0,94,0.00,,,0.00,VWS V14.01,2013-06-20 07:56:00,
2013-06-20 04:01:00,50.3,48.4,30.21,NNW,342,0.0,2.0,93,0.00,,,0.00,VWS V14.01,2013-06-20 08:01:00,
2013-06-20 04:06:00,50.4,48.2,30.20,NNW,342,0.0,0.0,92,0.00,,,0.00,VWS V14.01,2013-06-20 08:06:00,
2013-06-20 04:11:00,50.0,48.1,30.20,NNW,342,0.0,1.0,93,0.00,,,0.00,VWS V14.01,2013-06-20 08:11:00,
2013-06-20 04:16:00,49.7,48.0,30.20,NNW,342,0.0,1.0,94,0.00,,,0.00,VWS V14.01,2013-06-20 08:16:00,
2013-06-20 04:21:00,49.4,47.8,30.21,NNW,342,0.0,1.0,94,0.00,,,0.00,VWS V14.01,2013-06-20 08:21:00,
2013-06-20 04:26:00,49.2,47.5,30.21,NNW,342,0.0,1.0,94,0.00,,,0.00,VWS V14.01,2013-06-20 08:26:00,
2013-06-20 04:31:00,49.1,47.5,30.21,NNW,342,0.0,2.0,94,0.00,,,0.00,VWS V14.01,2013-06-20 08:31:00,
2013-06-20 04:36:00,49.0,47.3,30.21,NNW,342,0.0,0.0,94,0.00,,,0.00,VWS V14.01,2013-06-20 08:36:00,
2013-06-20 04:41:00,49.0,47.6,30.21,NNW,342,0.0,2.0,95,0.00,,,0.00,VWS V14.01,2013-06-20 08:41:00,
2013-06-20 04:46:00,48.9,47.5,30.21,NNW,342,0.0,2.0,95,0.00,,,0.00,VWS V14.01,2013-06-20 08:46:00,
2013-06-20 04:51:00,48.9,47.5,30.21,NNW,342,1.0,2.0,95,0.00,,,0.00,VWS V14.01,2013-06-20 08:51:00,
2013-06-20 04:56:00,48.8,47.4,30.22,NNW,342,0.0,2.0,95,0.00,,,0.00,VWS V14.01,2013-06-20 08:56:00,
2013-06-20 05:01:00,48.7,47.3,30.22,NNW,342,0.0,2.0,95,0.00,,,0.00,VWS V14.01,2013-06-20 09:01:00,
2013-06-20 05:06:00,48.7,47.3,30.22,NNW,342,0.0,0.0,95,0.00,,,0.00,VWS V14.01,2013-06-20 09:06:00,
2013-06-20 05:11:00,48.7,47.3,30.22,NNW,342,0.0,0.0,95,0.00,,,0.00,VWS V14.01,2013-06-20 09:11:00,
2013-06-20 05:16:00,48.7,47.3,30.22,NNW,342,1.0,1.0,95,0.00,,,0.00,VWS V14.01,2013-06-20 09:16:00,
2013-06-20 05:21:00,48.7,47.3,30.22,NNW,342,0.0,2.0,95,0.00,,,0.00,VWS V14.01,2013-06-20 09:21:00,
2013-06-20 05:26:00,48.8,47.4,30.22,NNW,342,0.0,2.0,95,0.00,,,0.00,VWS V14.01,2013-06-20 09:26:00,
2013-06-20 05:31:00,48.8,47.4,30.23,NNW,342,0.0,2.0,95,0.00,,,0.00,VWS V14.01,2013-06-20 09:31:00,
2013-06-20 05:36:00,48.8,47.4,30.23,NNW,342,1.0,1.0,95,0.00,,,0.00,VWS V14.01,2013-06-20 09:36:00,
2013-06-20 05:41:00,48.8,47.4,30.23,NNW,342,0.0,2.0,95,0.00,,,0.00,VWS V14.01,2013-06-20 09:41:00,
2013-06-20 05:46:00,48.9,47.5,30.23,NNW,342,0.0,2.0,95,0.00,,,0.00,VWS V14.01,2013-06-20 09:46:00,
2013-06-20 05:51:00,49.2,48.1,30.23,NNW,342,0.0,2.0,96,0.00,,,0.00,VWS V14.01,2013-06-20 09:51:00,
2013-06-20 05:56:00,49.5,48.4,30.24,NNW,342,0.0,2.0,96,0.00,,,0.00,VWS V14.01,2013-06-20 09:56:00,
2013-06-20 06:01:00,50.0,48.9,30.24,NNW,342,0.0,2.0,96,0.00,,,0.00,VWS V14.01,2013-06-20 10:01:00,
2013-06-20 06:06:00,50.6,49.2,30.24,NNW,342,0.0,0.0,95,0.00,,,0.00,VWS V14.01,2013-06-20 10:06:00,
2013-06-20 06:11:00,51.6,49.7,30.24,NNW,342,0.0,0.0,93,0.00,,,0.00,VWS V14.01,2013-06-20 10:11:00,
2013-06-20 06:16:00,52.0,49.8,30.24,NNW,342,0.0,0.0,92,0.00,,,0.00,VWS V14.01,2013-06-20 10:16:00,
2013-06-20 06:21:00,52.2,50.2,30.24,NNW,342,0.0,0.0,93,0.00,,,0.00,VWS V14.01,2013-06-20 10:21:00,
2013-06-20 06:26:00,52.3,50.3,30.24,NNW,342,0.0,1.0,93,0.00,,,0.00,VWS V14.01,2013-06-20 10:26:00,
2013-06-20 06:31:00,52.6,50.6,30.25,NNW,342,0.0,1.0,93,0.00,,,0.00,VWS V14.01,2013-06-20 10:31:00,
2013-06-20 06:36:00,53.3,51.0,30.25,NNW,342,0.0,0.0,92,0.00,,,0.00,VWS V14.01,2013-06-20 10:36:00,
2013-06-20 06:41:00,54.4,50.9,30.25,NNW,342,0.0,0.0,88,0.00,,,0.00,VWS V14.01,2013-06-20 10:41:00,
2013-06-20 06:46:00,54.8,51.6,30.25,NNW,342,0.0,0.0,89,0.00,,,0.00,VWS V14.01,2013-06-20 10:46:00,
2013-06-20 06:51:00,55.3,51.2,30.25,NNW,342,0.0,0.0,86,0.00,,,0.00,VWS V14.01,2013-06-20 10:51:00,
2013-06-20 06:56:00,55.7,51.9,30.25,NNW,342,0.0,0.0,87,0.00,,,0.00,VWS V14.01,2013-06-20 10:56:00,
2013-06-20 07:01:00,56.0,52.2,30.26,NNW,342,0.0,1.0,87,0.00,,,0.00,VWS V14.01,2013-06-20 11:01:00,
2013-06-20 07:06:00,56.4,51.6,30.26,NNW,342,0.0,0.0,84,0.00,,,0.00,VWS V14.01,2013-06-20 11:06:00,
2013-06-20 07:11:00,56.6,51.2,30.26,NNW,342,0.0,0.0,82,0.00,,,0.00,VWS V14.01,2013-06-20 11:11:00,
2013-06-20 07:16:00,57.3,50.8,30.26,NNW,342,0.0,1.0,79,0.00,,,0.00,VWS V14.01,2013-06-20 11:16:00,
2013-06-20 07:21:00,57.9,50.4,30.26,NNW,342,0.0,1.0,76,0.00,,,0.00,VWS V14.01,2013-06-20 11:21:00,
2013-06-20 07:26:00,58.5,50.6,30.26,NNW,342,0.0,1.0,75,0.00,,,0.00,VWS V14.01,2013-06-20 11:26:00,
2013-06-20 07:31:00,58.7,50.5,30.26,NNW,342,0.0,1.0,74,0.00,,,0.00,VWS V14.01,2013-06-20 11:31:00,
2013-06-20 07:36:00,59.1,50.1,30.26,NNW,342,0.0,0.0,72,0.00,,,0.00,VWS V14.01,2013-06-20 11:36:00,
2013-06-20 07:41:00,59.2,50.9,30.26,NNW,342,0.0,1.0,74,0.00,,,0.00,VWS V14.01,2013-06-20 11:41:00,
2013-06-20 07:46:00,59.2,50.6,30.26,NNW,344,0.0,1.0,73,0.00,,,0.00,VWS V14.01,2013-06-20 11:46:00,
2013-06-20 07:51:00,59.8,51.5,30.27,NNW,343,0.0,1.0,74,0.00,,,0.00,VWS V14.01,2013-06-20 11:51:00,
2013-06-20 07:56:00,60.2,49.6,30.27,NNW,343,0.0,1.0,68,0.00,,,0.00,VWS V14.01,2013-06-20 11:56:00,
2013-06-20 08:01:00,60.2,49.6,30.27,NNW,343,0.0,1.0,68,0.00,,,0.00,VWS V14.01,2013-06-20 12:01:00,
2013-06-20 08:06:00,60.3,50.5,30.27,NE,42,0.0,1.0,70,0.00,,,0.00,VWS V14.01,2013-06-20 12:06:00,
2013-06-20 08:11:00,60.4,51.0,30.27,NE,42,0.0,1.0,71,0.00,,,0.00,VWS V14.01,2013-06-20 12:11:00,
2013-06-20 08:15:00,60.5,50.3,30.27,NE,42,0.0,1.0,69,0.00,,,0.00,VWS V14.01,2013-06-20 12:15:00,
2013-06-20 08:20:00,61.0,50.4,30.28,NE,42,0.0,1.0,68,0.00,,,0.00,VWS V14.01,2013-06-20 12:20:00,
2013-06-20 08:25:00,61.0,51.5,30.28,NE,42,0.0,1.0,71,0.00,,,0.00,VWS V14.01,2013-06-20 12:25:00,
2013-06-20 08:30:00,61.4,50.8,30.28,NE,42,1.0,2.0,68,0.00,,,0.00,VWS V14.01,2013-06-20 12:30:00,
2013-06-20 08:35:00,61.6,50.5,30.28,NE,42,0.0,0.0,67,0.00,,,0.00,VWS V14.01,2013-06-20 12:35:00,
2013-06-20 08:40:00,61.8,50.7,30.28,NE,42,2.0,2.0,67,0.00,,,0.00,VWS V14.01,2013-06-20 12:40:00,
2013-06-20 08:45:00,62.4,50.1,30.28,NE,42,0.0,2.0,64,0.00,,,0.00,VWS V14.01,2013-06-20 12:45:00,
2013-06-20 08:50:00,62.6,49.0,30.27,NE,42,0.0,2.0,61,0.00,,,0.00,VWS V14.01,2013-06-20 12:50:00,
2013-06-20 08:55:00,63.1,49.5,30.27,NE,42,0.0,2.0,61,0.00,,,0.00,VWS V14.01,2013-06-20 12:55:00,
2013-06-20 09:00:00,63.2,50.4,30.27,NE,42,0.0,2.0,63,0.00,,,0.00,VWS V14.01,2013-06-20 13:00:00,
2013-06-20 09:05:00,63.9,50.2,30.27,NE,42,0.0,1.0,61,0.00,,,0.00,VWS V14.01,2013-06-20 13:05:00,
2013-06-20 09:10:00,64.0,50.7,30.27,NE,42,0.0,2.0,62,0.00,,,0.00,VWS V14.01,2013-06-20 13:10:00,
2013-06-20 09:15:00,64.3,49.7,30.27,NE,42,0.0,2.0,59,0.00,,,0.00,VWS V14.01,2013-06-20 13:15:00,
2013-06-20 09:20:00,64.6,50.9,30.27,NE,42,1.0,2.0,61,0.00,,,0.00,VWS V14.01,2013-06-20 13:20:00,
2013-06-20 09:25:00,64.9,51.2,30.27,NE,42,0.0,2.0,61,0.00,,,0.00,VWS V14.01,2013-06-20 13:25:00,
2013-06-20 09:30:00,65.0,49.9,30.27,NE,51,0.0,2.0,58,0.00,,,0.00,VWS V14.01,2013-06-20 13:30:00,
2013-06-20 09:35:00,65.7,49.6,30.27,NE,51,0.0,0.0,56,0.00,,,0.00,VWS V14.01,2013-06-20 13:35:00,
2013-06-20 09:40:00,66.1,49.0,30.27,NE,52,0.0,2.0,54,0.00,,,0.00,VWS V14.01,2013-06-20 13:40:00,
2013-06-20 09:45:00,66.4,50.2,30.27,NE,52,0.0,2.0,56,0.00,,,0.00,VWS V14.01,2013-06-20 13:45:00,
2013-06-20 10:30:00,69.2,50.3,30.26,SE,135,1.0,7.0,51,0.00,,,0.00,VWS V14.01,2013-06-20 14:30:00,
2013-06-20 11:34:00,69.2,50.3,30.26,SE,135,1.0,7.0,51,0.00,,,0.00,VWS V14.01,2013-06-20 15:34:00,
2013-06-20 11:39:00,71.6,47.9,30.27,NW,324,3.0,7.0,43,0.00,,,0.00,VWS V14.01,2013-06-20 15:39:00,
2013-06-20 11:44:00,71.5,49.7,30.27,NNW,328,1.0,8.0,46,0.00,,,0.00,VWS V14.01,2013-06-20 15:44:00,
2013-06-20 11:49:00,71.4,50.1,30.27,WNW,296,5.0,8.0,47,0.00,,,0.00,VWS V14.01,2013-06-20 15:49:00,
2013-06-20 11:54:00,71.7,48.0,30.27,West,272,0.0,8.0,43,0.00,,,0.00,VWS V14.01,2013-06-20 15:54:00,
2013-06-20 11:59:00,71.8,46.9,30.27,ESE,103,2.0,8.0,41,0.00,,,0.00,VWS V14.01,2013-06-20 15:59:00,
2013-06-20 12:04:00,71.2,50.5,30.26,West,267,3.0,8.0,48,0.00,,,0.00,VWS V14.01,2013-06-20 16:04:00,
2013-06-20 12:09:00,71.7,49.2,30.26,North,350,0.0,4.0,45,0.00,,,0.00,VWS V14.01,2013-06-20 16:09:00,
2013-06-20 12:14:00,72.3,51.5,30.26,West,259,6.0,6.0,48,0.00,,,0.00,VWS V14.01,2013-06-20 16:14:00,
2013-06-20 12:19:00,72.6,51.2,30.26,East,85,0.0,6.0,47,0.00,,,0.00,VWS V14.01,2013-06-20 16:19:00,
2013-06-20 12:24:00,71.8,48.7,30.26,NW,319,1.0,6.0,44,0.00,,,0.00,VWS V14.01,2013-06-20 16:24:00,
2013-06-20 12:29:00,70.1,51.2,30.26,NW,304,0.0,7.0,51,0.00,,,0.00,VWS V14.01,2013-06-20 16:29:00,
2013-06-20 12:34:00,71.4,51.3,30.26,WNW,302,0.0,8.0,49,0.00,,,0.00,VWS V14.01,2013-06-20 16:34:00,
2013-06-20 12:39:00,72.5,50.6,30.27,WSW,257,3.0,7.0,46,0.00,,,0.00,VWS V14.01,2013-06-20 16:39:00,
2013-06-20 12:44:00,72.7,52.5,30.26,WNW,286,1.0,7.0,49,0.00,,,0.00,VWS V14.01,2013-06-20 16:44:00,
2013-06-20 12:49:00,72.6,50.7,30.26,South,186,4.0,7.0,46,0.00,,,0.00,VWS V14.01,2013-06-20 16:49:00,
2013-06-20 12:54:00,72.5,50.6,30.26,NW,318,3.0,7.0,46,0.00,,,0.00,VWS V14.01,2013-06-20 16:54:00,
2013-06-20 12:59:00,72.8,49.6,30.26,SSE,164,4.0,7.0,44,0.00,,,0.00,VWS V14.01,2013-06-20 16:59:00,
2013-06-20 13:04:00,72.0,50.1,30.26,NNW,333,3.0,7.0,46,0.00,,,0.00,VWS V14.01,2013-06-20 17:04:00,
2013-06-20 13:09:00,73.0,50.4,30.26,NW,314,2.0,6.0,45,0.00,,,0.00,VWS V14.01,2013-06-20 17:09:00,
2013-06-20 13:14:00,73.5,50.3,30.25,North,10,3.0,6.0,44,0.00,,,0.00,VWS V14.01,2013-06-20 17:14:00,
2013-06-20 13:19:00,73.1,49.9,30.25,East,90,0.0,8.0,44,0.00,,,0.00,VWS V14.01,2013-06-20 17:19:00,
2013-06-20 13:24:00,72.5,51.2,30.25,WNW,286,2.0,8.0,47,0.00,,,0.00,VWS V14.01,2013-06-20 17:24:00,
2013-06-20 13:29:00,73.1,50.5,30.25,South,170,3.0,8.0,45,0.00,,,0.00,VWS V14.01,2013-06-20 17:29:00,
2013-06-20 13:34:00,73.2,51.2,30.25,NW,325,3.0,8.0,46,0.00,,,0.00,VWS V14.01,2013-06-20 17:34:00,
2013-06-20 13:39:00,73.5,50.9,30.25,WSW,248,3.0,8.0,45,0.00,,,0.00,VWS V14.01,2013-06-20 17:39:00,
2013-06-20 13:44:00,73.7,52.8,30.25,NW,322,2.0,8.0,48,0.00,,,0.00,VWS V14.01,2013-06-20 17:44:00,
2013-06-20 13:49:00,74.2,52.1,30.25,WSW,244,2.0,8.0,46,0.00,,,0.00,VWS V14.01,2013-06-20 17:49:00,
2013-06-20 13:54:00,73.9,50.6,30.25,SSE,155,0.0,8.0,44,0.00,,,0.00,VWS V14.01,2013-06-20 17:54:00,
2013-06-20 13:59:00,73.8,50.5,30.25,SSW,213,3.0,8.0,44,0.00,,,0.00,VWS V14.01,2013-06-20 17:59:00,
2013-06-20 14:04:00,74.1,55.4,30.25,WNW,286,9.0,9.0,52,0.00,,,0.00,VWS V14.01,2013-06-20 18:04:00,
2013-06-20 14:09:00,74.2,51.5,30.25,NNW,338,0.0,6.0,45,0.00,,,0.00,VWS V14.01,2013-06-20 18:09:00,
2013-06-20 14:14:00,74.4,49.8,30.25,NW,309,2.0,7.0,42,0.00,,,0.00,VWS V14.01,2013-06-20 18:14:00,
2013-06-20 14:19:00,74.5,51.2,30.25,WSW,242,5.0,9.0,44,0.00,,,0.00,VWS V14.01,2013-06-20 18:19:00,
2013-06-20 14:24:00,74.3,53.9,30.25,WSW,252,4.0,9.0,49,0.00,,,0.00,VWS V14.01,2013-06-20 18:24:00,
2013-06-20 14:29:00,74.6,50.0,30.25,West,273,1.0,9.0,42,0.00,,,0.00,VWS V14.01,2013-06-20 18:29:00,
2013-06-20 14:34:00,74.7,50.7,30.25,West,276,4.0,10.0,43,0.00,,,0.00,VWS V14.01,2013-06-20 18:34:00,
2013-06-20 14:38:00,74.7,52.0,30.25,South,184,1.0,5.0,45,0.00,,,0.00,VWS V14.01,2013-06-20 18:38:00,
2013-06-20 14:43:00,74.9,52.8,30.24,WSW,239,0.0,5.0,46,0.00,,,0.00,VWS V14.01,2013-06-20 18:43:00,
2013-06-20 14:48:00,74.7,52.0,30.24,SSE,158,1.0,5.0,45,0.00,,,0.00,VWS V14.01,2013-06-20 18:48:00,
2013-06-20 14:53:00,74.9,49.0,30.24,West,272,4.0,8.0,40,0.00,,,0.00,VWS V14.01,2013-06-20 18:53:00,
2013-06-20 14:58:00,74.6,53.6,30.24,South,175,1.0,9.0,48,0.00,,,0.00,VWS V14.01,2013-06-20 18:58:00,
2013-06-20 15:03:00,75.1,49.2,30.25,West,269,1.0,9.0,40,0.00,,,0.00,VWS V14.01,2013-06-20 19:03:00,
2013-06-20 15:08:00,74.9,49.0,30.24,West,277,0.0,4.0,40,0.00,,,0.00,VWS V14.01,2013-06-20 19:08:00,
2013-06-20 15:13:00,75.0,50.4,30.24,South,171,1.0,5.0,42,0.00,,,0.00,VWS V14.01,2013-06-20 19:13:00,
2013-06-20 15:18:00,74.6,46.6,30.24,NNW,336,5.0,10.0,37,0.00,,,0.00,VWS V14.01,2013-06-20 19:18:00,
2013-06-20 15:23:00,74.9,51.5,30.24,NE,40,0.0,10.0,44,0.00,,,0.00,VWS V14.01,2013-06-20 19:23:00,
2013-06-20 15:28:00,75.0,47.7,30.24,West,277,2.0,10.0,38,0.00,,,0.00,VWS V14.01,2013-06-20 19:28:00,
2013-06-20 15:33:00,74.4,50.5,30.23,SSE,168,0.0,10.0,43,0.00,,,0.00,VWS V14.01,2013-06-20 19:33:00,
2013-06-20 15:38:00,74.6,48.0,30.24,SSW,201,1.0,6.0,39,0.00,,,0.00,VWS V14.01,2013-06-20 19:38:00,
2013-06-20 15:43:00,74.2,48.3,30.23,WSW,250,1.0,6.0,40,0.00,,,0.00,VWS V14.01,2013-06-20 19:43:00,
2013-06-20 15:48:00,74.4,48.5,30.24,West,281,2.0,8.0,40,0.00,,,0.00,VWS V14.01,2013-06-20 19:48:00,
2013-06-20 15:53:00,74.2,47.0,30.24,West,275,1.0,8.0,38,0.00,,,0.00,VWS V14.01,2013-06-20 19:53:00,
2013-06-20 15:58:00,74.3,47.8,30.23,WNW,302,0.0,8.0,39,0.00,,,0.00,VWS V14.01,2013-06-20 19:58:00,
2013-06-20 16:03:00,74.1,52.0,30.23,North,5,0.0,8.0,46,0.00,,,0.00,VWS V14.01,2013-06-20 20:03:00,
2013-06-20 16:08:00,74.2,50.3,30.23,WSW,238,1.0,6.0,43,0.00,,,0.00,VWS V14.01,2013-06-20 20:08:00,
2013-06-20 16:13:00,74.3,49.8,30.23,SSW,210,2.0,6.0,42,0.00,,,0.00,VWS V14.01,2013-06-20 20:13:00,
2013-06-20 16:18:00,74.4,49.8,30.23,SW,215,0.0,6.0,42,0.00,,,0.00,VWS V14.01,2013-06-20 20:18:00,
2013-06-20 16:23:00,74.7,48.1,30.23,WNW,287,3.0,6.0,39,0.00,,,0.00,VWS V14.01,2013-06-20 20:23:00,
2013-06-20 16:28:00,74.6,49.4,30.23,West,261,3.0,6.0,41,0.00,,,0.00,VWS V14.01,2013-06-20 20:28:00,
2013-06-20 16:33:00,74.7,47.4,30.23,WSW,257,2.0,8.0,38,0.00,,,0.00,VWS V14.01,2013-06-20 20:33:00,
2013-06-20 16:38:00,74.8,52.1,30.23,NW,309,1.0,6.0,45,0.00,,,0.00,VWS V14.01,2013-06-20 20:38:00,
2013-06-20 16:43:00,75.0,50.4,30.22,WNW,287,0.0,6.0,42,0.00,,,0.00,VWS V14.01,2013-06-20 20:43:00,
2013-06-20 16:48:00,75.0,49.1,30.23,West,269,5.0,9.0,40,0.00,,,0.00,VWS V14.01,2013-06-20 20:48:00,
2013-06-20 16:53:00,75.0,52.2,30.23,ENE,63,0.0,9.0,45,0.00,,,0.00,VWS V14.01,2013-06-20 20:53:00,
2013-06-20 16:58:00,75.3,50.7,30.23,West,268,7.0,9.0,42,0.00,,,0.00,VWS V14.01,2013-06-20 20:58:00,
2013-06-20 17:03:00,75.5,51.5,30.22,WSW,258,0.0,9.0,43,0.00,,,0.00,VWS V14.01,2013-06-20 21:03:00,
2013-06-20 17:08:00,75.5,52.7,30.23,WNW,286,0.0,3.0,45,0.00,,,0.00,VWS V14.01,2013-06-20 21:08:00,
2013-06-20 17:13:00,75.4,52.0,30.23,WSW,254,2.0,7.0,44,0.00,,,0.00,VWS V14.01,2013-06-20 21:13:00,
2013-06-20 17:18:00,75.1,50.5,30.23,West,276,8.0,8.0,42,0.00,,,0.00,VWS V14.01,2013-06-20 21:18:00,
2013-06-20 17:23:00,74.2,50.3,30.22,WNW,298,2.0,9.0,43,0.00,,,0.00,VWS V14.01,2013-06-20 21:23:00,
2013-06-20 17:28:00,74.7,52.0,30.22,SW,227,0.0,9.0,45,0.00,,,0.00,VWS V14.01,2013-06-20 21:28:00,
2013-06-20 17:33:00,75.1,51.1,30.22,NNW,332,4.0,9.0,43,0.00,,,0.00,VWS V14.01,2013-06-20 21:33:00,
2013-06-20 17:38:00,74.7,51.4,30.22,WNW,289,1.0,4.0,44,0.00,,,0.00,VWS V14.01,2013-06-20 21:38:00,
2013-06-20 17:43:00,73.9,52.4,30.22,West,261,0.0,4.0,47,0.00,,,0.00,VWS V14.01,2013-06-20 21:43:00,
2013-06-20 17:48:00,73.1,52.8,30.22,West,261,0.0,4.0,49,0.00,,,0.00,VWS V14.01,2013-06-20 21:48:00,
2013-06-20 17:53:00,73.1,53.4,30.22,West,261,2.0,4.0,50,0.00,,,0.00,VWS V14.01,2013-06-20 21:53:00,
2013-06-20 17:58:00,73.8,55.1,30.22,NW,315,2.0,4.0,52,0.00,,,0.00,VWS V14.01,2013-06-20 21:58:00,
2013-06-20 18:03:00,74.5,54.1,30.22,NNW,336,0.0,4.0,49,0.00,,,0.00,VWS V14.01,2013-06-20 22:03:00,
2013-06-20 18:08:00,74.8,52.7,30.22,NW,306,2.0,5.0,46,0.00,,,0.00,VWS V14.01,2013-06-20 22:08:00,
2013-06-20 18:13:00,74.8,53.2,30.22,SE,128,0.0,5.0,47,0.00,,,0.00,VWS V14.01,2013-06-20 22:13:00,
2013-06-20 18:18:00,74.5,53.0,30.22,WSW,241,0.0,6.0,47,0.00,,,0.00,VWS V14.01,2013-06-20 22:18:00,
2013-06-20 18:23:00,74.1,53.2,30.22,WNW,298,0.0,6.0,48,0.00,,,0.00,VWS V14.01,2013-06-20 22:23:00,
2013-06-20 18:28:00,74.0,53.1,30.22,NNW,338,1.0,6.0,48,0.00,,,0.00,VWS V14.01,2013-06-20 22:28:00,
2013-06-20 18:33:00,73.5,53.2,30.22,WSW,257,0.0,6.0,49,0.00,,,0.00,VWS V14.01,2013-06-20 22:33:00,
2013-06-20 18:38:00,72.5,53.9,30.22,WSW,257,0.0,0.0,52,0.00,,,0.00,VWS V14.01,2013-06-20 22:38:00,
2013-06-20 18:43:00,72.5,55.4,30.22,North,5,0.0,2.0,55,0.00,,,0.00,VWS V14.01,2013-06-20 22:43:00,
2013-06-20 18:48:00,72.1,56.0,30.22,WSW,238,0.0,4.0,57,0.00,,,0.00,VWS V14.01,2013-06-20 22:48:00,
2013-06-20 18:53:00,72.1,56.5,30.22,WSW,244,0.0,4.0,58,0.00,,,0.00,VWS V14.01,2013-06-20 22:53:00,
2013-06-20 18:58:00,71.9,54.9,30.22,NW,306,0.0,4.0,55,0.00,,,0.00,VWS V14.01,2013-06-20 22:58:00,
2013-06-20 19:03:00,71.7,55.7,30.22,WNW,284,2.0,4.0,57,0.00,,,0.00,VWS V14.01,2013-06-20 23:03:00,
2013-06-20 19:08:00,71.9,56.3,30.22,West,280,0.0,5.0,58,0.00,,,0.00,VWS V14.01,2013-06-20 23:08:00,
2013-06-20 19:13:00,71.4,57.3,30.22,West,280,0.0,5.0,61,0.00,,,0.00,VWS V14.01,2013-06-20 23:13:00,
2013-06-20 19:18:00,70.4,56.3,30.23,West,280,0.0,5.0,61,0.00,,,0.00,VWS V14.01,2013-06-20 23:18:00,
2013-06-20 19:23:00,69.8,55.8,30.23,West,280,0.0,5.0,61,0.00,,,0.00,VWS V14.01,2013-06-20 23:23:00,
2013-06-20 19:28:00,69.5,55.5,30.22,West,280,0.0,5.0,61,0.00,,,0.00,VWS V14.01,2013-06-20 23:28:00,
2013-06-20 19:33:00,69.0,56.8,30.22,West,280,0.0,5.0,65,0.00,,,0.00,VWS V14.01,2013-06-20 23:33:00,
2013-06-20 19:38:00,68.7,55.6,30.23,West,280,0.0,0.0,63,0.00,,,0.00,VWS V14.01,2013-06-20 23:38:00,
2013-06-20 19:43:00,68.2,56.0,30.23,West,280,0.0,0.0,65,0.00,,,0.00,VWS V14.01,2013-06-20 23:43:00,
2013-06-20 19:48:00,67.6,55.8,30.23,West,280,0.0,0.0,66,0.00,,,0.00,VWS V14.01,2013-06-20 23:48:00,
2013-06-20 19:53:00,67.2,55.9,30.23,West,280,0.0,2.0,67,0.00,,,0.00,VWS V14.01,2013-06-20 23:53:00,
2013-06-20 19:58:00,66.6,55.3,30.23,West,280,0.0,2.0,67,0.00,,,0.00,VWS V14.01,2013-06-20 23:58:00,
2013-06-20 20:03:00,65.9,55.5,30.23,West,280,0.0,2.0,69,0.00,,,0.00,VWS V14.01,2013-06-21 00:03:00,
2013-06-20 20:08:00,65.5,55.5,30.23,West,280,0.0,0.0,70,0.00,,,0.00,VWS V14.01,2013-06-21 00:08:00,
2013-06-20 20:13:00,65.1,55.5,30.23,West,280,0.0,0.0,71,0.00,,,0.00,VWS V14.01,2013-06-21 00:13:00,
2013-06-20 20:18:00,64.9,55.7,30.23,West,280,0.0,0.0,72,0.00,,,0.00,VWS V14.01,2013-06-21 00:18:00,
2013-06-20 20:23:00,64.8,56.0,30.23,West,280,0.0,0.0,73,0.00,,,0.00,VWS V14.01,2013-06-21 00:23:00,
2013-06-20 20:28:00,64.5,55.7,30.23,West,280,0.0,0.0,73,0.00,,,0.00,VWS V14.01,2013-06-21 00:28:00,
2013-06-20 20:33:00,64.5,56.0,30.23,West,280,0.0,0.0,74,0.00,,,0.00,VWS V14.01,2013-06-21 00:33:00,
2013-06-20 20:38:00,64.6,56.1,30.23,West,280,0.0,0.0,74,0.00,,,0.00,VWS V14.01,2013-06-21 00:38:00,
2013-06-20 20:43:00,64.8,56.3,30.23,West,280,0.0,0.0,74,0.00,,,0.00,VWS V14.01,2013-06-21 00:43:00,
2013-06-20 20:48:00,65.0,56.5,30.23,West,280,0.0,0.0,74,0.00,,,0.00,VWS V14.01,2013-06-21 00:48:00,
2013-06-20 20:53:00,65.1,56.6,30.23,West,281,0.0,0.0,74,0.00,,,0.00,VWS V14.01,2013-06-21 00:53:00,
2013-06-20 20:58:00,64.7,56.6,30.23,West,281,0.0,0.0,75,0.00,,,0.00,VWS V14.01,2013-06-21 00:58:00,
2013-06-20 21:03:00,64.5,56.8,30.24,NNW,340,0.0,0.0,76,0.00,,,0.00,VWS V14.01,2013-06-21 01:03:00,
2013-06-20 21:08:00,64.6,56.5,30.24,North,355,0.0,0.0,75,0.00,,,0.00,VWS V14.01,2013-06-21 01:08:00,
2013-06-20 21:13:00,64.5,56.8,30.24,North,5,0.0,0.0,76,0.00,,,0.00,VWS V14.01,2013-06-21 01:13:00,
2013-06-20 21:18:00,64.3,56.6,30.24,NNW,329,0.0,0.0,76,0.00,,,0.00,VWS V14.01,2013-06-21 01:18:00,
2013-06-20 21:23:00,64.4,57.0,30.24,NW,309,0.0,0.0,77,0.00,,,0.00,VWS V14.01,2013-06-21 01:23:00,
2013-06-20 21:28:00,64.5,57.1,30.25,NW,304,0.0,0.0,77,0.00,,,0.00,VWS V14.01,2013-06-21 01:28:00,
2013-06-20 21:33:00,64.2,57.2,30.25,NW,305,0.0,0.0,78,0.00,,,0.00,VWS V14.01,2013-06-21 01:33:00,
2013-06-20 21:38:00,63.9,56.9,30.25,SSW,211,0.0,1.0,78,0.00,,,0.00,VWS V14.01,2013-06-21 01:38:00,
2013-06-20 21:43:00,63.9,56.9,30.25,NE,35,0.0,1.0,78,0.00,,,0.00,VWS V14.01,2013-06-21 01:43:00,
2013-06-20 21:48:00,63.6,57.0,30.25,NW,311,0.0,3.0,79,0.00,,,0.00,VWS V14.01,2013-06-21 01:48:00,
2013-06-20 21:53:00,63.6,57.0,30.25,West,263,2.0,3.0,79,0.00,,,0.00,VWS V14.01,2013-06-21 01:53:00,
2013-06-20 21:58:00,63.3,57.0,30.25,NW,317,0.0,3.0,80,0.00,,,0.00,VWS V14.01,2013-06-21 01:58:00,
2013-06-20 22:03:00,63.3,57.0,30.25,SSW,193,1.0,5.0,80,0.00,,,0.00,VWS V14.01,2013-06-21 02:03:00,
2013-06-20 22:08:00,62.9,56.6,30.25,WSW,254,2.0,5.0,80,0.00,,,0.00,VWS V14.01,2013-06-21 02:08:00,
2013-06-20 22:13:00,62.9,56.6,30.26,WNW,282,2.0,7.0,80,0.00,,,0.00,VWS V14.01,2013-06-21 02:13:00,
2013-06-20 22:18:00,62.5,56.9,30.25,WSW,257,3.0,7.0,82,0.00,,,0.00,VWS V14.01,2013-06-21 02:18:00,
2013-06-20 22:23:00,62.2,56.6,30.25,WSW,257,0.0,7.0,82,0.00,,,0.00,VWS V14.01,2013-06-21 02:23:00,
2013-06-20 22:28:00,62.1,56.9,30.25,WSW,252,0.0,7.0,83,0.00,,,0.00,VWS V14.01,2013-06-21 02:28:00,
2013-06-20 22:33:00,62.3,56.7,30.25,West,259,2.0,7.0,82,0.00,,,0.00,VWS V14.01,2013-06-21 02:33:00,
2013-06-20 22:38:00,62.2,56.6,30.25,WSW,242,1.0,4.0,82,0.00,,,0.00,VWS V14.01,2013-06-21 02:38:00,
2013-06-20 22:43:00,62.0,56.8,30.25,West,275,2.0,4.0,83,0.00,,,0.00,VWS V14.01,2013-06-21 02:43:00,
2013-06-20 22:48:00,62.0,56.5,30.25,WNW,292,0.0,4.0,82,0.00,,,0.00,VWS V14.01,2013-06-21 02:48:00,
2013-06-20 22:53:00,62.0,56.5,30.25,West,259,1.0,6.0,82,0.00,,,0.00,VWS V14.01,2013-06-21 02:53:00,
2013-06-20 22:58:00,61.8,56.6,30.25,WSW,258,0.0,6.0,83,0.00,,,0.00,VWS V14.01,2013-06-21 02:58:00,
2013-06-20 23:03:00,61.5,56.3,30.25,West,269,1.0,6.0,83,0.00,,,0.00,VWS V14.01,2013-06-21 03:03:00,
2013-06-20 23:08:00,61.4,56.2,30.25,West,269,0.0,1.0,83,0.00,,,0.00,VWS V14.01,2013-06-21 03:08:00,
2013-06-20 23:13:00,61.2,56.0,30.25,NNW,329,0.0,3.0,83,0.00,,,0.00,VWS V14.01,2013-06-21 03:13:00,
2013-06-20 23:18:00,60.9,56.4,30.25,NNW,337,0.0,3.0,85,0.00,,,0.00,VWS V14.01,2013-06-21 03:18:00,
2013-06-20 23:23:00,60.7,56.2,30.25,West,266,0.0,3.0,85,0.00,,,0.00,VWS V14.01,2013-06-21 03:23:00,
2013-06-20 23:28:00,60.5,55.7,30.25,West,278,0.0,4.0,84,0.00,,,0.00,VWS V14.01,2013-06-21 03:28:00,
2013-06-20 23:33:00,60.4,55.5,30.25,West,271,2.0,4.0,84,0.00,,,0.00,VWS V14.01,2013-06-21 03:33:00,
2013-06-20 23:38:00,60.2,55.7,30.25,WSW,252,2.0,3.0,85,0.00,,,0.00,VWS V14.01,2013-06-21 03:38:00,
2013-06-20 23:43:00,60.2,55.7,30.25,WSW,258,0.0,3.0,85,0.00,,,0.00,VWS V14.01,2013-06-21 03:43:00,
2013-06-20 23:48:00,60.0,55.5,30.26,WSW,258,0.0,4.0,85,0.00,,,0.00,VWS V14.01,2013-06-21 03:48:00,
2013-06-20 23:53:00,59.8,55.3,30.26,West,266,2.0,4.0,85,0.00,,,0.00,VWS V14.01,2013-06-21 03:53:00,
2013-06-20 23:58:00,59.6,55.4,30.26,West,266,0.0,4.0,86,0.00,,,0.00,VWS V14.01,2013-06-21 03:58:00,